sat.trackr.live / text

‹ back to catalog

ONEWEB-0211

NORAD 48767 · 2021-045A

PAYLOAD ACTIVE UNKNOWN

§ Identity

Operator
Country
UK
Launch date
2021-05-28
Launch site
VOSTO
Launch vehicle
Mass (kg)
RCS (m²)

Purposes: comms

External: N2YO · Heavens-Above · Gunter

§ Orbital elements

Epoch: 2026-05-25T01:56:27.816000Z

Period
109.41 min
Inclination
87.8994°
Eccentricity
0.0001218
Mean motion
13.16195733 rev/d
Perigee alt
1,198.4 km
Apogee alt
1,200.2 km
Semi-major
7,577.4 km
B*
4.0412e-4
RAAN
263.6905°
Arg perigee
107.5801°
Mean anomaly
252.5462°
Rev number
24,140

§ Raw data

ONEWEB-02111 48767U 21045A   26145.08087750  .00000166  00000+0  40412-3 0  99932 48767  87.8994 263.6905 0001218 107.5801 252.5462 13.16195733241400

JSON: /api/v1/satellites/48767 · /tle

For live sub-satellite position, see the globe view (requires WebGL).

§ Visibility from observer

Set your observer location to see the next 7 days of passes ≥ 10°. The values pass through the URL so the page stays shareable.

No JS? Fill the form by hand. The geolocation button needs JavaScript.